Wind_Speed
13 13 13 14 14 15 16 17 17 17 18 18 18 18 18 18 17 17 16 16 16 15 15 15 15 16 16 16 16 17 17 17 17 17 18 19 19 19 19 19 19 20 20
14 14 14 14 15 15 16 17 17 18 18 19 19 19 19 19 19 18 18 17 17 17 17 18 18 17 17 17 17 18 18 19 19 20 20 20 20 20 20 20 20 20 20
15 15 14 15 16 16 16 17 18 19 19 20 20 20 20 20 20 20 19 19 19 19 19 19 19 19 19 19 19 19 19 20 20 21 22 22 22 21 21 22 22 22 22
16 16 17 17 17 17 17 18 19 19 20 20 20 22 22 22 22 22 22 22 22 21 21 21 20 20 21 22 21 21 21 21 21 21 22 22 23 23 24 24 24 24 23
18 18 18 19 19 19 19 19 20 20 21 21 21 22 22 23 23 23 23 22 22 22 22 22 22 22 22 22 22 22 22 22 22 23 23 23 24 25 25 25 25 25 25
19 19 21 21 20 20 20 21 21 22 22 22 21 22 22 22 23 23 23 23 22 23 22 22 23 22 22 23 23 23 23 23 23 24 24 24 24 25 25 25 26 26 27
21 22 22 22 21 22 22 22 22 22 22 22 23 22 23 23 24 23 23 23 23 23 23 23 23 23 23 23 23 24 24 25 25 25 25 25 26 26 26 27 28 29 29
22 23 23 23 23 23 24 23 23 23 23 24 24 24 24 24 24 24 24 24 24 24 24 24 24 24 24 24 24 25 25 26 26 26 27 26 27 27 28 29 30 30 30
22 23 24 24 25 25 25 24 24 24 25 25 25 25 25 26 26 25 25 25 25 25 25 24 25 25 26 26 26 26 26 26 27 27 28 28 28 28 30 30 30 30 30
24 25 26 26 26 26 26 26 26 26 27 26 26 26 26 26 27 27 26 26 26 26 25 25 25 25 25 26 27 28 27 27 27 28 28 29 30 30 30 31 31 31 31
27 28 28 27 27 27 27 27 27 28 28 28 27 27 27 27 27 27 27 27 27 26 25 25 25 26 27 27 27 28 28 28 29 29 29 30 31 31 32 32 31 31 31
29 29 29 28 28 28 28 28 28 29 29 29 29 29 29 28 28 28 28 28 27 27 26 25 25 26 26 27 28 28 29 29 29 30 30 31 31 31 31 32 32 31 31
29 28 28 29 29 29 28 28 28 29 29 29 29 29 29 29 29 29 29 28 28 27 27 27 27 27 27 28 28 28 28 29 29 30 30 31 31 30 31 32 32 32 32
29 28 27 28 28 28 28 28 27 28 29 29 29 29 29 29 29 29 29 28 28 28 28 28 28 28 28 28 28 29 29 29 29 30 31 31 30 30 30 31 31 31 30
29 28 28 28 28 28 28 28 28 28 29 29 29 29 29 29 29 29 29 29 29 29 29 29 29 29 29 29 29 29 30 30 30 30 30 30 30 29 30 31 31 31 30
29 29 28 28 28 28 28 29 29 29 29 30 30 30 30 30 30 30 29 29 29 30 29 29 29 30 30 30 30 30 30 31 31 30 30 30 30 30 31 31 30 30 30
30 30 29 29 29 29 28 29 30 30 31 31 31 31 31 31 30 30 30 30 30 30 30 29 30 30 29 29 29 29 30 30 30 31 31 31 31 31 31 30 30 30 30
32 32 31 31 30 30 31 31 31 31 31 32 32 32 33 32 32 31 30 30 30 30 29 29 29 29 29 29 29 29 29 29 29 30 30 30 30 30 30 30 30 30 30
32 32 32 32 32 32 32 32 31 31 31 32 32 32 33 33 32 32 31 30 30 30 30 29 29 29 29 28 28 29 29 28 28 28 29 29 29 29 29 29 29 29 29
32 32 32 33 32 32 32 32 32 32 32 32 32 32 32 32 31 31 31 30 29 29 29 29 29 29 28 28 27 28 28 28 28 28 29 29 29 29 30 30 29 28 27
32 32 32 32 32 32 32 32 32 32 32 32 32 32 31 31 30 30 30 30 29 29 28 27 27 27 27 26 26 27 27 27 27 28 29 29 28 29 29 28 28 28 28
31 31 31 32 32 32 31 31 32 32 32 31 30 30 30 30 29 28 28 28 28 27 26 26 26 26 26 26 26 27 27 27 27 27 28 27 27 27 28 28 28 28 28
30 30 31 32 32 31 31 31 31 32 31 30 30 29 29 29 29 28 28 28 27 27 26 26 26 26 26 26 27 27 27 26 27 27 27 27 27 27 27 27 27 27 27
30 30 30 31 30 30 31 31 30 30 30 30 29 29 29 29 28 28 28 28 27 27 26 26 26 26 26 26 26 26 27 27 27 28 28 28 28 27 27 27 27 27 26
29 29 29 29 29 29 30 30 29 29 29 29 29 29 28 28 28 27 28 28 28 28 28 27 27 27 27 27 27 27 27 27 27 27 27 27 27 28 27 26 26 26 26
28 28 28 28 28 29 29 29 29 29 29 29 29 28 27 27 26 27 27 28 28 28 27 27 26 26 26 27 27 27 27 27 27 27 27 27 27 27 26 26 25 24 24
Wind_Direction
308 311 311 313 313 312 311 311 313 312 312 310 310 309 308 307 302 300 297 295 292 286 283 283 282 281 281 278 275 274 272 270 269 267 267 266 266 263 264 265 267 268 268
304 307 309 312 314 313 313 313 314 314 311 310 309 308 306 303 302 299 295 296 294 290 287 284 281 279 279 277 276 276 275 272 270 269 268 267 268 266 266 265 266 267 268
300 302 304 308 310 312 313 314 312 313 311 309 309 307 305 303 299 297 295 292 290 289 288 285 281 278 277 276 274 273 274 273 271 270 268 268 268 267 265 266 266 266 267
296 299 301 303 305 307 310 311 311 312 311 307 306 306 305 304 301 298 295 294 290 287 287 287 282 279 278 274 273 273 272 273 272 272 270 268 267 266 266 266 266 266 267
294 296 298 299 301 303 306 308 309 309 308 306 305 305 305 304 301 299 297 295 291 290 288 286 282 281 279 275 273 273 273 273 274 275 273 271 269 268 268 266 266 267 268
296 297 298 299 300 301 303 305 305 306 308 308 306 305 304 303 301 299 297 295 293 291 288 286 284 282 280 278 277 276 275 275 275 276 276 275 272 272 270 269 268 267 268
297 298 299 298 298 299 301 302 303 303 304 305 304 303 303 303 301 300 299 299 298 295 290 287 285 283 281 280 279 278 277 274 273 274 275 274 273 272 271 270 270 270 270
298 299 300 298 299 299 300 299 300 302 302 303 303 302 301 302 302 304 302 300 299 295 290 286 283 281 280 279 279 279 278 276 274 273 275 274 273 273 273 273 274 275 272
296 297 297 297 299 299 299 299 298 300 301 302 302 303 302 302 304 303 300 299 298 296 290 286 283 281 281 281 280 280 279 278 277 275 275 275 275 275 275 276 276 276 274
294 295 296 296 298 297 298 298 298 299 300 302 303 302 301 301 302 302 299 297 295 294 290 285 284 282 281 282 281 280 279 277 278 278 277 276 275 274 275 275 275 275 274
291 292 292 294 295 295 296 295 296 297 299 299 300 299 298 298 299 299 298 297 296 294 289 284 283 283 282 282 282 281 280 280 279 280 279 278 276 275 274 274 275 275 274
291 292 293 294 295 294 293 293 294 296 297 297 297 297 297 297 297 297 297 296 296 295 291 287 284 282 282 281 281 281 280 280 280 280 280 280 278 275 273 273 274 274 273
294 295 296 294 295 296 295 294 294 295 296 297 297 298 297 297 297 296 296 295 293 292 290 287 284 283 283 282 281 281 281 280 280 280 280 281 279 276 274 273 272 273 273
296 297 296 295 295 295 295 295 296 296 297 297 297 298 297 297 297 297 296 295 293 290 289 287 284 282 283 282 282 281 281 281 281 282 281 281 281 279 276 274 273 273 274
296 296 297 296 297 296 295 296 297 298 299 299 300 300 299 298 297 297 297 295 293 290 289 287 285 284 283 282 281 282 281 281 281 281 281 280 279 278 277 276 275 273 272
295 296 296 297 298 297 296 297 297 298 298 299 300 300 300 299 298 296 295 294 292 290 289 287 285 284 283 282 281 281 281 281 280 279 279 280 280 278 276 275 275 274 272
293 295 296 297 296 296 296 296 297 297 297 298 299 300 300 300 298 297 295 294 293 291 289 288 286 285 283 283 282 282 282 281 280 279 279 280 279 278 277 276 275 275 275
291 293 295 296 295 295 295 295 296 296 297 298 298 299 299 299 298 297 296 294 293 292 291 289 287 286 285 284 284 283 284 284 282 281 281 282 281 279 278 277 276 276 276
291 293 294 295 295 294 295 295 295 296 297 298 298 299 299 299 298 296 296 295 294 292 291 290 289 288 288 286 285 285 285 285 284 284 283 283 282 280 279 278 277 276 275
291 292 294 295 296 294 295 295 295 297 297 298 298 299 300 300 299 297 296 296 295 293 291 290 289 288 288 287 287 287 287 287 286 286 284 283 283 281 281 279 277 276 276
290 292 294 295 296 295 294 294 295 297 297 298 299 300 301 300 300 299 297 297 296 294 292 291 290 289 288 288 288 288 287 287 287 287 287 286 285 283 282 280 277 277 277
289 291 292 294 295 295 295 295 296 297 298 298 299 300 300 299 299 299 299 298 297 295 292 290 289 289 288 289 289 289 289 288 288 288 288 286 286 284 283 281 279 278 277
289 291 292 294 295 295 296 297 297 297 298 298 299 299 299 298 297 298 299 298 297 295 293 291 290 289 289 289 289 289 289 289 288 288 289 287 287 287 285 284 281 278 275
291 292 293 294 294 294 296 297 298 298 298 298 299 299 298 298 298 297 297 297 296 295 294 293 291 290 290 291 292 293 292 291 289 288 288 288 288 287 286 284 283 280 277
292 293 294 294 294 295 296 296 297 298 298 298 298 298 298 298 297 297 296 296 296 295 294 293 292 291 291 291 291 292 292 292 291 290 289 288 287 285 284 284 283 281 278
290 293 294 294 294 295 296 296 296 297 298 298 298 298 299 299 298 298 297 297 296 295 295 295 295 293 293 294 293 292 292 291 291 290 290 288 286 285 284 283 283 281 278
Height
5864 5863 5861 5860 5858 5856 5854 5852 5850 5847 5845 5843 5841 5839 5837 5835 5833 5831 5829 5828 5826 5825 5824 5823 5823 5822 5821 5821 5820 5820 5820 5820 5821 5821 5821 5821 5821 5822 5823 5823 5823 5824 5824
5861 5859 5858 5856 5854 5852 5850 5848 5846 5844 5842 5839 5837 5835 5833 5831 5829 5827 5825 5824 5822 5821 5820 5819 5818 5817 5817 5816 5816 5815 5815 5815 5815 5816 5816 5816 5816 5816 5817 5817 5818 5818 5818
5857 5856 5854 5853 5851 5849 5847 5844 5842 5840 5838 5835 5833 5831 5829 5827 5825 5823 5821 5819 5818 5817 5815 5814 5813 5812 5811 5811 5811 5810 5810 5810 5810 5810 5810 5810 5810 5810 5811 5811 5811 5812 5812
5853 5852 5850 5849 5847 5845 5843 5841 5838 5836 5833 5831 5829 5826 5824 5822 5820 5818 5816 5814 5813 5811 5810 5809 5807 5806 5806 5805 5805 5804 5804 5804 5803 5803 5804 5804 5804 5804 5804 5804 5805 5805 5805
5849 5847 5846 5844 5842 5840 5838 5836 5834 5831 5829 5826 5824 5822 5819 5817 5814 5812 5810 5808 5807 5806 5804 5803 5802 5800 5799 5799 5798 5798 5798 5797 5797 5797 5797 5797 5797 5797 5797 5797 5798 5798 5798
5845 5842 5841 5839 5837 5835 5833 5831 5828 5826 5824 5821 5819 5816 5814 5811 5808 5806 5804 5802 5801 5799 5798 5797 5795 5794 5793 5792 5792 5791 5791 5791 5791 5791 5790 5790 5790 5790 5790 5790 5790 5790 5790
5840 5838 5835 5833 5831 5829 5827 5825 5823 5821 5818 5816 5813 5811 5808 5805 5802 5800 5798 5796 5795 5793 5791 5790 5789 5788 5787 5786 5785 5784 5784 5783 5784 5783 5783 5783 5783 5782 5782 5782 5782 5782 5782
5834 5832 5830 5828 5826 5824 5822 5820 5818 5815 5813 5810 5808 5805 5802 5800 5797 5794 5792 5790 5788 5786 5784 5783 5781 5780 5780 5779 5778 5777 5776 5776 5776 5775 5775 5775 5775 5774 5774 5774 5773 5773 5773
5828 5826 5824 5822 5820 5818 5816 5814 5812 5809 5807 5804 5802 5799 5797 5794 5791 5788 5786 5783 5781 5778 5777 5775 5774 5773 5772 5771 5770 5770 5769 5768 5767 5767 5767 5767 5766 5766 5765 5765 5764 5764 5764
5821 5819 5817 5815 5813 5811 5809 5807 5805 5802 5800 5797 5795 5793 5790 5787 5785 5782 5779 5776 5774 5771 5769 5768 5767 5766 5764 5763 5762 5762 5761 5760 5759 5758 5758 5758 5757 5756 5756 5755 5755 5754 5754
5814 5812 5810 5808 5806 5803 5801 5799 5797 5795 5793 5790 5788 5785 5783 5780 5777 5774 5772 5769 5766 5764 5762 5761 5759 5758 5757 5756 5754 5753 5753 5752 5751 5749 5749 5748 5747 5747 5746 5745 5745 5745 5744
5806 5804 5802 5800 5798 5795 5793 5791 5789 5787 5785 5782 5780 5777 5775 5772 5770 5767 5764 5761 5759 5756 5754 5753 5751 5750 5748 5747 5746 5745 5744 5743 5742 5740 5739 5739 5738 5737 5736 5735 5735 5734 5734
5799 5796 5794 5792 5790 5787 5785 5784 5782 5779 5777 5774 5772 5769 5766 5763 5761 5758 5756 5753 5750 5748 5746 5745 5743 5742 5740 5739 5737 5736 5735 5734 5733 5731 5730 5729 5728 5727 5726 5725 5725 5724 5724
5791 5789 5786 5784 5782 5780 5778 5776 5774 5771 5769 5766 5763 5761 5758 5755 5752 5750 5747 5745 5742 5740 5738 5736 5734 5733 5731 5730 5729 5727 5726 5724 5723 5722 5721 5719 5718 5717 5716 5716 5715 5714 5714
5783 5781 5779 5777 5774 5772 5770 5768 5766 5763 5761 5758 5755 5752 5750 5747 5744 5741 5738 5736 5733 5731 5729 5727 5725 5724 5722 5721 5719 5718 5717 5715 5714 5712 5711 5710 5709 5708 5707 5706 5706 5705 5704
5776 5773 5770 5769 5767 5765 5763 5760 5758 5755 5753 5750 5747 5744 5741 5738 5735 5732 5729 5727 5724 5722 5720 5718 5716 5714 5713 5711 5710 5708 5707 5706 5704 5703 5702 5700 5699 5698 5697 5697 5696 5695 5695
5768 5765 5763 5761 5759 5757 5755 5752 5750 5747 5744 5741 5738 5735 5732 5729 5726 5723 5720 5718 5715 5713 5710 5708 5707 5705 5703 5702 5700 5699 5697 5696 5694 5693 5692 5690 5689 5688 5687 5686 5686 5685 5685
5760 5758 5755 5753 5750 5748 5746 5743 5741 5738 5735 5732 5729 5726 5722 5720 5717 5714 5711 5708 5706 5703 5701 5699 5697 5695 5694 5693 5691 5689 5688 5686 5685 5683 5682 5681 5679 5678 5677 5676 5676 5675 5674
5751 5749 5747 5744 5742 5739 5737 5734 5731 5729 5726 5722 5719 5716 5713 5710 5707 5704 5701 5699 5696 5694 5691 5689 5688 5686 5685 5683 5682 5680 5678 5677 5676 5674 5673 5671 5670 5668 5667 5666 5665 5665 5664
5743 5741 5738 5735 5732 5730 5727 5725 5722 5719 5716 5713 5710 5707 5703 5700 5697 5695 5692 5689 5687 5684 5682 5681 5679 5677 5675 5674 5672 5671 5669 5668 5666 5665 5663 5662 5660 5659 5658 5657 5656 5655 5654
5734 5731 5729 5726 5723 5721 5718 5715 5713 5710 5707 5704 5701 5698 5694 5691 5688 5686 5683 5680 5678 5676 5674 5672 5670 5669 5667 5665 5664 5662 5661 5659 5658 5656 5654 5652 5650 5649 5648 5647 5646 5645 5644
5724 5722 5720 5717 5714 5712 5709 5706 5704 5701 5697 5695 5692 5689 5686 5683 5680 5677 5675 5672 5670 5667 5665 5663 5662 5660 5659 5657 5655 5654 5652 5650 5649 5647 5645 5643 5641 5640 5638 5637 5636 5635 5635
5715 5713 5710 5708 5705 5703 5700 5698 5695 5692 5688 5685 5683 5680 5677 5674 5672 5669 5667 5664 5661 5659 5657 5655 5654 5652 5650 5648 5647 5645 5643 5641 5639 5637 5636 5634 5632 5630 5629 5627 5626 5625 5625
5706 5704 5702 5699 5697 5694 5691 5689 5686 5683 5680 5677 5674 5671 5668 5666 5663 5661 5658 5656 5653 5651 5649 5647 5645 5643 5642 5640 5638 5636 5634 5632 5630 5628 5626 5624 5622 5621 5619 5618 5617 5616 5615
5698 5695 5693 5690 5688 5686 5683 5680 5677 5674 5671 5669 5666 5663 5660 5657 5654 5652 5650 5647 5645 5643 5641 5638 5636 5635 5633 5631 5629 5627 5625 5623 5620 5618 5616 5614 5613 5611 5610 5608 5607 5607 5606
5689 5687 5684 5682 5680 5677 5674 5672 5669 5666 5663 5660 5657 5654 5651 5649 5646 5644 5641 5639 5636 5634 5632 5630 5628 5626 5624 5622 5620 5618 5616 5614 5611 5609 5606 5605 5603 5601 5600 5599 5598 5597 5597